FW5145 Weather Reports


Display with metric or nautical units.
time (UTC)temp
F
wind
direction
speed
MPH
gust
MPH
rain 1hr
in
rain 24hr
in
rain mn
in
humidity
%
barometer
mb
20260901190534 62 0 0.0 0.0 0.00 0.00 0.00 100 1021.0
20260901190055 62 0 0.0 1.0 0.00 0.00 0.00 100 1021.0
20260901185533 63 0 0.0 1.0 0.00 0.00 0.00 100 1020.8
20260901185033 63 0 0.0 3.0 0.00 0.00 0.00 100 1020.8
20260901184558 63 0 0.0 8.0 0.00 0.00 0.00 100 1020.9
20260901184033 63 242 1.0 8.0 0.00 0.00 0.00 100 1021.0
20260901183533 63 0 0.0 6.0 0.00 0.00 0.00 100 1021.0
20260901183049 64 249 1.0 6.0 0.00 0.00 0.00 100 1021.1
20260901182533 64 0 0.0 3.0 0.00 0.00 0.00 100 1021.0
20260901182033 64 0 0.0 5.0 0.00 0.00 0.00 100 1020.9
20260901181547 64 0 0.0 5.0 0.00 0.00 0.00 100 1020.8
20260901181033 64 252 1.0 10.0 0.00 0.00 0.00 100 1020.8
20260901180534 65 198 1.0 11.0 0.00 0.00 0.00 100 1020.8
20260901180055 65 215 3.0 11.0 0.00 0.00 0.00 100 1020.8
20260901175532 65 149 1.0 11.0 0.00 0.00 0.00 100 1020.8
20260901175032 65 231 3.0 11.0 0.00 0.00 0.00 100 1020.8
20260901174552 66 261 4.0 11.0 0.00 0.00 0.00 100 1020.9
20260901174033 66 249 1.0 7.0 0.00 0.00 0.00 100 1020.7
20260901173538 66 227 1.0 7.0 0.00 0.00 0.00 100 1020.7
20260901173048 67 202 1.0 6.0 0.00 0.00 0.00 100 1020.7
20260901172533 67 268 2.0 6.0 0.00 0.00 0.00 100 1020.7
20260901172033 67 163 1.0 7.0 0.00 0.00 0.00 100 1020.8
20260901171557 67 211 1.0 7.0 0.00 0.00 0.00 100 1020.7
20260901171041 67 205 1.0 7.0 0.00 0.00 0.00 100 1020.8
20260901170533 67 261 1.0 8.0 0.00 0.00 0.00 100 1020.7
20260901170117 67 148 2.0 8.0 0.00 0.00 0.00 100 1020.5
20260901165532 67 145 1.0 8.0 0.00 0.00 0.00 100 1020.5
20260901165033 68 121 1.0 8.0 0.00 0.00 0.00 100 1020.5
20260901164554 68 121 2.0 7.0 0.00 0.00 0.00 100 1020.5
20260901164033 68 233 2.0 8.0 0.00 0.00 0.00 100 1020.5
20260901163533 68 218 2.0 8.0 0.00 0.00 0.00 100 1020.3
20260901163050 68 231 1.0 5.0 0.00 0.00 0.00 100 1020.4
20260901162535 67 0 0.0 4.0 0.00 0.00 0.00 100 1020.4
20260901162032 67 171 1.0 4.0 0.00 0.00 0.00 100 1020.5
20260901161600 67 0 0.0 11.0 0.00 0.00 0.00 100 1020.6
20260901161035 67 249 1.0 11.0 0.00 0.00 0.00 100 1020.7
20260901160533 68 96 3.0 11.0 0.00 0.00 0.00 100 1020.7
20260901160056 68 0 1.0 5.0 0.00 0.00 0.00 100 1020.7
20260901155532 68 0 2.0 5.0 0.00 0.00 0.00 100 1020.7
20260901155032 68 270 1.0 6.0 0.00 0.00 0.00 100 1020.8
20260901154602 68 269 2.0 6.0 0.00 0.00 0.00 100 1020.9
20260901154032 69 229 1.0 7.0 0.00 0.00 0.00 100 1021.0
20260901153532 69 240 2.0 7.0 0.00 0.00 0.00 100 1020.9
20260901153053 70 187 2.0 11.0 0.00 0.00 0.00 100 1020.8
20260901152533 70 240 3.0 11.0 0.00 0.00 0.00 100 1020.7
20260901152035 70 249 1.0 7.0 0.00 0.00 0.00 100 1020.8
20260901151555 70 216 2.0 7.0 0.00 0.00 0.00 100 1021.0
20260901151032 70 0 2.0 7.0 0.00 0.00 0.00 100 1020.8
20260901150533 71 242 2.0 7.0 0.00 0.00 0.00 100 1020.8
20260901145534 71 242 1.0 7.0 0.00 0.00 0.00 100 1020.9
20260901145032 70 287 2.0 9.0 0.00 0.00 0.00 100 1020.8
20260901144557 70 273 3.0 9.0 0.00 0.00 0.00 100 1021.0
20260901144036 71 216 3.0 10.0 0.00 0.00 0.00 100 1021.0
20260901143533 71 0 4.0 10.0 0.00 0.00 0.00 100 1020.9
20260901143055 71 217 3.0 9.0 0.00 0.00 0.00 100 1020.9
20260901142532 71 250 2.0 9.0 0.00 0.00 0.00 100 1020.8
20260901142032 70 229 3.0 9.0 0.00 0.00 0.00 100 1020.9
20260901141553 70 266 3.0 9.0 0.00 0.00 0.00 100 1020.9
20260901141032 70 236 2.0 9.0 0.00 0.00 0.00 100 1020.9
20260901140537 69 169 3.0 9.0 0.00 0.00 0.00 100 1021.0
20260901140050 69 242 1.0 9.0 0.00 0.00 0.00 100 1021.0
20260901135537 69 267 1.0 9.0 0.00 0.00 0.00 100 1021.0
20260901135037 69 294 2.0 6.0 0.00 0.00 0.00 100 1021.0
20260901134557 68 297 3.0 9.0 0.00 0.00 0.00 100 1021.0
20260901134035 68 252 3.0 9.0 0.00 0.00 0.00 100 1021.1
20260901133536 68 222 2.0 9.0 0.00 0.00 0.00 100 1021.2
20260901133105 68 267 1.0 6.0 0.00 0.00 0.00 100 1021.2
20260901132536 67 186 1.0 7.0 0.00 0.00 0.00 100 1021.2
20260901132036 67 286 2.0 7.0 0.00 0.00 0.00 100 1021.3
20260901131553 67 254 2.0 7.0 0.00 0.00 0.00 100 1021.3
20260901131036 67 264 2.0 7.0 0.00 0.00 0.00 100 1021.4
20260901130536 67 190 2.0 7.0 0.00 0.00 0.00 100 1021.4
20260901130058 68 242 2.0 10.0 0.00 0.00 0.00 100 1021.3
20260901125536 68 244 3.0 10.0 0.00 0.00 0.00 100 1021.3
20260901125033 68 265 2.0 8.0 0.00 0.00 0.00 100 1021.2
20260901124545 68 248 1.0 8.0 0.00 0.00 0.00 100 1021.4
20260901124036 67 201 2.0 8.0 0.00 0.00 0.00 100 1021.3
20260901123536 68 234 1.0 7.0 0.00 0.00 0.00 100 1021.5
20260901123055 68 242 2.0 7.0 0.00 0.00 0.00 100 1021.3
20260901122534 69 346 2.0 7.0 0.00 0.00 0.00 100 1021.4
20260901122036 69 192 3.0 9.0 0.00 0.00 0.00 100 1021.3
20260901121602 68 198 4.0 9.0 0.00 0.00 0.00 100 1021.4
20260901121035 68 261 2.0 9.0 0.00 0.00 0.00 100 1021.4
20260901120534 68 232 2.0 9.0 0.00 0.00 0.00 100 1021.4
20260901120049 67 238 3.0 9.0 0.00 0.00 0.00 100 1021.5
20260901115536 67 211 3.0 9.0 0.00 0.00 0.00 100 1021.4
20260901115036 66 294 2.0 4.0 0.00 0.00 0.00 100 1021.4
20260901114557 66 327 1.0 8.0 0.00 0.00 0.00 100 1021.3
20260901114035 66 256 2.0 8.0 0.00 0.00 0.00 100 1021.5
20260901113536 66 234 1.0 7.0 0.00 0.00 0.00 100 1021.5
20260901113100 66 279 2.0 8.0 0.00 0.00 0.00 100 1021.5
20260901112532 66 240 3.0 8.0 0.00 0.00 0.00 100 1021.4
20260901112032 66 188 3.0 9.0 0.00 0.00 0.00 100 1021.6
20260901111553 66 160 2.0 9.0 0.00 0.00 0.00 100 1021.5
20260901111036 66 227 3.0 8.0 0.00 0.00 0.00 100 1021.4
20260901110534 66 215 3.0 8.0 0.00 0.00 0.00 100 1021.5
20260901110050 66 236 1.0 8.0 0.00 0.00 0.00 100 1021.5
20260901105534 66 223 2.0 6.0 0.00 0.00 0.00 100 1021.6
20260901105032 66 252 1.0 9.0 0.00 0.00 0.00 100 1021.6
20260901104553 65 157 2.0 9.0 0.00 0.00 0.00 100 1021.6
20260901104033 65 238 3.0 10.0 0.00 0.00 0.00 100 1021.8
20260901103532 65 169 3.0 10.0 0.00 0.00 0.00 100 1021.9
20260901103051 64 269 2.0 6.0 0.00 0.00 0.00 100 1021.8
20260901102533 64 298 2.0 8.0 0.00 0.00 0.00 100 1021.8
20260901102033 64 311 2.0 9.0 0.00 0.00 0.00 100 1022.0
20260901101550 64 247 2.0 9.0 0.00 0.00 0.00 100 1021.9
20260901101033 64 318 3.0 9.0 0.00 0.00 0.00 100 1021.9
20260901100533 64 250 3.0 8.0 0.00 0.00 0.00 100 1021.9
20260901095532 63 200 1.0 6.0 0.00 0.00 0.00 100 1021.9
20260901095032 63 161 0.0 6.0 0.00 0.00 0.00 100 1022.1
20260901094551 63 0 2.0 8.0 0.00 0.00 0.00 100 1022.1
20260901094033 62 0 0.0 8.0 0.00 0.00 0.00 100 1022.1
20260901093532 62 0 0.0 1.0 0.00 0.00 0.00 100 1022.2
20260901093048 62 0 0.0 3.0 0.00 0.00 0.00 100 1022.1
20260901092534 62 0 0.0 3.0 0.00 0.00 0.00 100 1022.2
20260901092033 61 0 0.0 4.0 0.00 0.00 0.00 100 1022.1
20260901091555 61 0 0.0 4.0 0.00 0.00 0.00 100 1022.2
20260901091032 61 259 0.0 1.0 0.00 0.00 0.00 100 1022.0
20260901090532 61 0 0.0 3.0 0.00 0.00 0.00 100 1022.0
20260901090053 61 0 0.0 3.0 0.00 0.00 0.00 100 1022.0
20260901085532 60 241 0.0 3.0 0.00 0.00 0.00 100 1021.9
20260901085032 60 0 0.0 4.0 0.00 0.00 0.00 100 1021.9
20260901084559 60 0 1.0 4.0 0.00 0.00 0.00 100 1021.9
20260901084035 59 0 0.0 0.0 0.00 0.00 0.00 100 1022.0
20260901083536 59 0 0.0 1.0 0.00 0.00 0.00 100 1022.0
20260901083057 58 0 0.0 1.0 0.00 0.00 0.00 100 1021.9
20260901082531 58 0 0.0 0.0 0.00 0.00 0.00 100 1021.8
20260901082032 58 0 0.0 0.0 0.00 0.00 0.00 100 1021.8
20260901081556 58 0 0.0 0.0 0.00 0.00 0.00 100 1021.8
20260901081032 58 0 0.0 0.0 0.00 0.00 0.00 100 1021.8
20260901080532 57 0 0.0 2.0 0.00 0.00 0.00 100 1021.6
20260901080053 57 0 0.0 3.0 0.00 0.00 0.00 100 1021.6
20260901075532 57 0 0.0 3.0 0.00 0.00 0.00 100 1021.6
20260901075039 57 0 0.0 4.0 0.00 0.00 0.00 100 1021.6
20260901074555 57 248 0.0 4.0 0.00 0.00 0.00 100 1021.6
20260901074037 57 0 0.0 3.0 0.00 0.00 0.00 100 1021.5
20260901073535 56 0 0.0 4.0 0.00 0.00 0.00 100 1021.6
20260901073053 56 0 0.0 4.0 0.00 0.00 0.00 100 1021.5
20260901072536 56 261 0.0 3.0 0.00 0.00 0.00 100 1021.6
20260901072031 56 269 1.0 4.0 0.00 0.00 0.00 100 1021.5
20260901071550 56 0 0.0 4.0 0.00 0.00 0.00 100 1021.5
20260901071033 56 0 0.0 3.0 0.00 0.00 0.00 100 1021.5
20260901070531 56 0 0.0 3.0 0.00 0.00 0.00 100 1021.5
20260901070058 55 244 0.0 3.0 0.00 0.00 0.00 100 1021.4
20260901065535 55 0 0.0 3.0 0.00 0.00 0.00 100 1021.4
20260901065033 55 250 0.0 3.0 0.00 0.00 0.00 100 1021.3
20260901064555 55 0 0.0 3.0 0.00 0.00 0.00 100 1021.3
20260901064035 55 0 0.0 4.0 0.00 0.00 0.00 100 1021.2
20260901063533 55 246 0.0 4.0 0.00 0.00 0.00 100 1021.2
20260901063113 55 0 0.0 4.0 0.00 0.00 0.00 100 1021.1
20260901062532 55 0 0.0 4.0 0.00 0.00 0.00 100 1021.1
20260901062035 54 245 0.0 3.0 0.00 0.00 0.00 100 1021.1
20260901061549 54 0 0.0 3.0 0.00 0.00 0.00 100 1021.1
20260901061034 54 238 0.0 3.0 0.00 0.00 0.00 100 1021.1
20260901060533 54 0 0.0 2.0 0.00 0.00 0.00 100 1021.0
20260901060052 54 0 0.0 2.0 0.00 0.00 0.00 100 1021.0
20260901055538 54 0 0.0 1.0 0.00 0.00 0.00 100 1020.9
20260901055032 53 0 0.0 1.0 0.00 0.00 0.00 100 1021.0
20260901054547 53 0 0.0 3.0 0.00 0.00 0.00 100 1020.9
20260901054034 53 0 0.0 3.0 0.00 0.00 0.00 100 1020.9
20260901053532 53 0 0.0 1.0 0.00 0.00 0.00 100 1020.8
20260901053100 53 0 0.0 1.0 0.00 0.00 0.00 100 1020.7
20260901052535 53 0 0.0 1.0 0.00 0.00 0.00 100 1020.7
20260901052035 53 0 0.0 0.0 0.00 0.00 0.00 100 1020.6
20260901051613 53 0 0.0 0.0 0.00 0.00 0.00 100 1020.7
20260901051035 53 0 0.0 0.0 0.00 0.00 0.00 100 1020.7
20260901050533 53 0 0.0 1.0 0.00 0.00 0.00 100 1020.7
20260901050050 53 0 0.0 2.0 0.00 0.00 0.00 100 1020.7
20260901045531 53 0 0.0 2.0 0.00 0.00 0.00 100 1020.6
20260901045034 53 0 0.0 2.0 0.00 0.00 0.00 100 1020.6
20260901044546 53 247 0.0 2.0 0.00 0.00 0.00 100 1020.4
20260901044035 53 0 0.0 2.0 0.00 0.00 0.00 100 1020.4
20260901043535 53 0 0.0 1.0 0.00 0.00 0.00 100 1020.4
20260901043057 53 0 0.0 0.0 0.00 0.00 0.00 100 1020.5
20260901042544 53 0 0.0 3.0 0.00 0.00 0.00 100 1020.5
20260901042035 53 0 0.0 3.0 0.00 0.00 0.00 100 1020.4
20260901041553 53 0 0.0 2.0 0.00 0.00 0.00 100 1020.3
20260901041035 53 0 0.0 0.0 0.00 0.00 0.00 100 1020.3
20260901040533 53 0 0.0 1.0 0.00 0.00 0.00 100 1020.2
20260901040051 53 0 0.0 1.0 0.00 0.00 0.00 100 1020.2
20260901035531 54 0 0.0 1.0 0.00 0.00 0.00 100 1020.2
20260901035034 54 0 0.0 0.0 0.00 0.00 0.00 100 1020.2
20260901034555 54 0 0.0 0.0 0.00 0.00 0.00 100 1020.2
20260901034032 54 0 0.0 2.0 0.00 0.00 0.00 100 1020.2
20260901033534 54 0 0.0 2.0 0.00 0.00 0.00 100 1020.2
20260901033110 54 0 0.0 2.0 0.00 0.00 0.00 100 1020.2
20260901032532 54 0 0.0 2.0 0.00 0.00 0.00 100 1020.3
20260901032031 54 0 0.0 0.0 0.00 0.00 0.00 100 1020.3
20260901031554 54 0 0.0 1.0 0.00 0.00 0.00 100 1020.2
20260901031035 55 0 0.0 1.0 0.00 0.00 0.00 100 1020.3
20260901030533 55 0 0.0 1.0 0.00 0.00 0.00 100 1020.2
20260901030050 55 0 0.0 2.0 0.00 0.00 0.00 100 1020.2
20260901025534 55 0 0.0 3.0 0.00 0.02 0.00 100 1020.3
20260901025033 55 0 0.0 3.0 0.00 0.02 0.00 100 1020.2
20260901024550 55 0 0.0 3.0 0.00 0.02 0.00 100 1020.2
20260901024032 55 0 0.0 1.0 0.00 0.02 0.00 100 1020.2
20260901023531 55 0 0.0 0.0 0.00 0.02 0.00 100 1020.2
20260901023052 55 0 0.0 0.0 0.00 0.02 0.00 100 1020.1
20260901022535 56 0 0.0 0.0 0.00 0.02 0.00 100 1020.2
20260901022033 56 0 0.0 3.0 0.00 0.02 0.00 100 1020.1
20260901021554 56 0 0.0 3.0 0.00 0.02 0.00 100 1020.2
20260901021034 56 0 0.0 1.0 0.00 0.02 0.00 100 1020.2
20260901020535 56 0 0.0 1.0 0.00 0.02 0.00 100 1020.2
20260901020044 56 0 0.0 3.0 0.00 0.02 0.00 100 1020.2
20260901015533 56 0 0.0 3.0 0.00 0.03 0.00 100 1020.2
20260901015528 56 0 0.0 2.0 0.00 0.03 0.00 100 1020.2
20260901014033 57 0 0.0 4.0 0.00 0.03 0.00 100 1020.2
20260901013534 57 248 0.0 3.0 0.00 0.03 0.00 100 1020.1
20260901013047 57 264 0.0 3.0 0.00 0.03 0.00 100 1020.1
20260901012531 57 0 0.0 4.0 0.00 0.03 0.00 100 1020.0
20260901012031 57 230 0.0 4.0 0.00 0.03 0.00 100 1020.0
20260901011555 57 0 0.0 4.0 0.00 0.03 0.00 100 1020.0
20260901011035 57 248 0.0 4.0 0.00 0.03 0.00 100 1020.0
20260901010532 57 0 0.0 4.0 0.00 0.03 0.00 100 1019.9
20260901010054 57 0 0.0 5.0 0.00 0.03 0.00 100 1019.9
20260901005534 57 254 1.0 5.0 0.00 0.18 0.00 100 1019.8
20260901005036 57 242 0.0 4.0 0.00 0.18 0.00 100 1019.9
20260901004609 57 286 0.0 4.0 0.00 0.18 0.00 100 1019.9
20260901004035 57 0 1.0 4.0 0.00 0.18 0.00 100 1019.8
20260901003535 57 246 0.0 3.0 0.00 0.18 0.00 100 1019.9
20260901003048 57 0 0.0 4.0 0.00 0.18 0.00 100 1019.8
20260901002532 57 0 0.0 7.0 0.00 0.18 0.00 100 1019.7
20260901002033 58 0 1.0 7.0 0.00 0.18 0.00 100 1019.7
20260901001559 58 0 0.0 4.0 0.00 0.18 0.00 100 1019.7
20260901001034 58 0 1.0 4.0 0.00 0.18 0.00 100 1019.7
20260901000531 58 0 0.0 4.0 0.00 0.18 0.00 100 1019.7
20260901000103 58 0 0.0 3.0 0.00 0.18 0.00 100 1019.7
20260831235538 58 0 0.0 2.0 0.00 0.18 0.00 100 1019.6
20260831235036 58 0 0.0 4.0 0.00 0.18 0.00 100 1019.7
20260831234550 58 0 0.0 4.0 0.00 0.18 0.00 100 1019.5
20260831234033 58 224 0.0 4.0 0.00 0.18 0.00 100 1019.6
20260831233533 58 0 1.0 4.0 0.00 0.18 0.00 100 1019.6
20260831233045 58 258 0.0 4.0 0.00 0.18 0.00 100 1019.6
20260831232533 59 0 0.0 4.0 0.00 0.18 0.00 100 1019.6
20260831232033 59 0 0.0 4.0 0.00 0.18 0.00 100 1019.6
20260831231546 59 0 1.0 4.0 0.00 0.18 0.00 100 1019.4
20260831231034 59 0 0.0 3.0 0.00 0.18 0.00 100 1019.5
20260831230536 59 0 0.0 4.0 0.00 0.18 0.00 100 1019.4
20260831230051 59 256 0.0 4.0 0.00 0.18 0.00 100 1019.4
20260831225533 59 221 0.0 4.0 0.00 0.18 0.18 100 1019.5
20260831225032 59 0 1.0 6.0 0.00 0.18 0.18 100 1019.5
20260831224600 59 253 1.0 6.0 0.00 0.18 0.18 100 1019.4
20260831224032 59 257 0.0 6.0 0.00 0.18 0.18 100 1019.5
20260831223535 59 249 1.0 6.0 0.00 0.18 0.18 100 1019.7
20260831223054 60 0 0.0 4.0 0.00 0.18 0.18 100 1019.6
20260831222533 60 0 0.0 7.0 0.00 0.18 0.18 100 1019.5
20260831222034 60 0 0.0 7.0 0.00 0.18 0.18 100 1019.6
20260831221547 60 242 1.0 7.0 0.00 0.18 0.18 100 1019.6
20260831221033 60 272 2.0 7.0 0.00 0.18 0.18 100 1019.5
20260831220533 60 249 0.0 5.0 0.00 0.18 0.18 100 1019.5
20260831220045 60 252 0.0 3.0 0.00 0.18 0.18 100 1019.5
20260831215533 60 231 0.0 3.0 0.00 0.18 0.18 100 1019.4
20260831215033 60 0 0.0 3.0 0.00 0.18 0.18 100 1019.4
20260831214557 60 0 0.0 4.0 0.00 0.18 0.18 100 1019.4
20260831214037 61 234 1.0 5.0 0.00 0.18 0.18 100 1019.3
20260831213533 61 0 0.0 5.0 0.00 0.18 0.18 100 1019.2
20260831213056 61 239 0.0 5.0 0.00 0.18 0.18 100 1019.3
20260831212534 61 252 1.0 4.0 0.00 0.18 0.18 100 1019.2
20260831212032 61 0 0.0 4.0 0.00 0.18 0.18 100 1019.1
20260831211548 61 0 0.0 6.0 0.00 0.18 0.18 100 1019.1
20260831211033 61 248 1.0 6.0 0.00 0.18 0.18 100 1019.1
20260831210532 62 0 1.0 6.0 0.00 0.18 0.18 100 1019.1
20260831210045 62 265 0.0 5.0 0.00 0.18 0.18 100 1018.9
20260831205534 62 250 0.0 3.0 0.00 0.20 0.18 100 1018.8
20260831205032 62 0 0.0 3.0 0.00 0.20 0.18 100 1018.7
20260831204555 62 0 0.0 5.0 0.00 0.20 0.18 100 1018.8
20260831204033 62 0 1.0 5.0 0.00 0.20 0.18 100 1018.6
20260831203534 62 0 0.0 5.0 0.00 0.20 0.18 100 1018.6
20260831203059 62 237 1.0 5.0 0.00 0.20 0.18 100 1018.5
20260831202533 63 232 1.0 4.0 0.00 0.20 0.18 100 1018.5
20260831202036 63 264 1.0 4.0 0.00 0.20 0.18 100 1018.4
20260831201547 63 0 1.0 4.0 0.00 0.20 0.18 100 1018.4
20260831201033 63 240 1.0 4.0 0.00 0.20 0.18 100 1018.3
20260831200532 63 253 0.0 1.0 0.00 0.20 0.18 100 1018.2
20260831200049 64 0 0.0 0.0 0.00 0.20 0.18 100 1018.2
20260831195534 64 0 0.0 3.0 0.00 0.20 0.18 100 1018.1
20260831195035 64 0 0.0 4.0 0.00 0.20 0.18 100 1018.1
20260831194619 64 239 1.0 4.0 0.00 0.20 0.18 100 1018.0
20260831194035 64 0 0.0 4.0 0.00 0.20 0.18 100 1018.0
20260831193532 65 0 1.0 6.0 0.00 0.20 0.18 100 1017.9
20260831193052 65 263 0.0 6.0 0.00 0.20 0.18 100 1017.9
20260831192533 65 249 1.0 6.0 0.00 0.20 0.18 100 1017.8
20260831192034 65 263 0.0 7.0 0.00 0.20 0.18 100 1017.8
20260831191549 65 238 2.0 8.0 0.00 0.20 0.18 100 1017.7
20260831191034 65 267 3.0 8.0 0.00 0.20 0.18 100 1017.6